Time,TemperatureF,DewpointF,PressureIn,WindDirection,WindDirectionDegrees,WindSpeedMPH,WindSpeedGustMPH,Humidity,HourlyPrecipIn,Conditions,Clouds,dailyrainin,SolarRadiationWatts/m^2,SoftwareType,DateUTC
2013-02-15 00:00:00,29.1,25.5,29.93,ESE,121,0.0,0.0,86,0.00,,,0.00,0.0,meteohub,2013-02-15 05:00:00,
2013-02-15 00:01:00,29.1,25.5,29.93,ESE,121,0.0,0.0,86,0.00,,,0.00,0.0,meteohub,2013-02-15 05:01:00,
2013-02-15 00:04:00,29.1,25.5,29.93,ESE,121,0.0,0.0,86,0.00,,,0.00,0.0,meteohub,2013-02-15 05:04:00,
2013-02-15 00:09:00,29.1,25.7,29.93,ESE,121,0.0,0.0,87,0.00,,,0.00,0.0,meteohub,2013-02-15 05:09:00,
2013-02-15 00:14:00,29.1,25.5,29.93,ESE,121,0.0,0.0,86,0.00,,,0.00,0.0,meteohub,2013-02-15 05:14:00,
2013-02-15 00:20:00,29.5,26.1,29.93,ESE,121,0.0,0.0,87,0.00,,,0.00,0.0,meteohub,2013-02-15 05:20:00,
2013-02-15 00:25:00,29.5,26.1,29.93,ESE,121,0.0,0.0,87,0.00,,,0.00,0.0,meteohub,2013-02-15 05:25:00,
2013-02-15 00:31:00,29.7,26.2,29.92,ESE,121,0.0,0.0,87,0.00,,,0.00,0.0,meteohub,2013-02-15 05:31:00,
2013-02-15 00:36:00,29.7,26.2,29.92,ESE,121,0.0,0.0,87,0.00,,,0.00,0.0,meteohub,2013-02-15 05:36:00,
2013-02-15 00:41:00,29.8,26.4,29.92,ESE,121,0.0,1.0,87,0.00,,,0.00,0.0,meteohub,2013-02-15 05:41:00,
2013-02-15 00:47:00,29.8,26.4,29.91,ESE,121,0.0,1.0,87,0.00,,,0.00,0.0,meteohub,2013-02-15 05:47:00,
2013-02-15 00:52:00,30.0,26.6,29.91,ESE,121,0.0,1.0,87,0.00,,,0.00,0.0,meteohub,2013-02-15 05:52:00,
2013-02-15 00:57:00,30.0,26.6,29.91,ESE,121,0.0,1.0,87,0.00,,,0.00,0.0,meteohub,2013-02-15 05:57:00,
2013-02-15 01:02:00,30.4,27.0,29.91,ESE,121,0.0,1.0,87,0.00,,,0.00,0.0,meteohub,2013-02-15 06:02:00,
2013-02-15 01:07:00,30.6,27.1,29.91,ESE,121,0.0,1.0,87,0.00,,,0.00,0.0,meteohub,2013-02-15 06:07:00,
2013-02-15 01:12:00,31.3,28.2,29.91,SSE,165,0.0,1.0,88,0.00,,,0.00,0.0,meteohub,2013-02-15 06:12:00,
2013-02-15 01:17:00,31.8,28.4,29.91,South,173,0.0,3.0,87,0.00,,,0.00,0.0,meteohub,2013-02-15 06:17:00,
2013-02-15 01:23:00,32.5,29.1,29.91,SSW,201,0.0,3.0,87,0.00,,,0.00,0.0,meteohub,2013-02-15 06:23:00,
2013-02-15 01:28:00,33.3,29.3,29.91,South,190,1.0,3.0,85,0.00,,,0.00,0.0,meteohub,2013-02-15 06:28:00,
2013-02-15 01:33:00,33.6,29.3,29.91,South,188,0.0,3.0,84,0.00,,,0.00,0.0,meteohub,2013-02-15 06:33:00,
2013-02-15 01:39:00,34.0,29.3,29.91,South,184,0.0,4.0,83,0.00,,,0.00,0.0,meteohub,2013-02-15 06:39:00,
2013-02-15 01:44:00,34.3,29.5,29.91,SSW,196,0.0,5.0,82,0.00,,,0.00,0.0,meteohub,2013-02-15 06:44:00,
2013-02-15 01:49:00,34.9,29.3,29.91,South,177,0.0,5.0,80,0.00,,,0.00,0.0,meteohub,2013-02-15 06:49:00,
2013-02-15 01:55:00,35.1,29.1,29.91,SW,218,2.0,5.0,79,0.00,,,0.00,0.0,meteohub,2013-02-15 06:55:00,
2013-02-15 02:00:00,35.2,29.1,29.91,South,184,0.0,5.0,78,0.00,,,0.00,0.0,meteohub,2013-02-15 07:00:00,
2013-02-15 02:05:00,35.4,29.3,29.91,SW,214,0.0,5.0,78,0.00,,,0.00,0.0,meteohub,2013-02-15 07:05:00,
2013-02-15 02:10:00,35.8,29.3,29.91,ESE,118,0.0,5.0,77,0.00,,,0.00,0.0,meteohub,2013-02-15 07:10:00,
2013-02-15 02:16:00,35.8,29.3,29.91,NNW,329,2.0,5.0,77,0.00,,,0.00,0.0,meteohub,2013-02-15 07:16:00,
2013-02-15 02:21:00,35.8,28.9,29.91,WSW,238,0.0,3.0,76,0.00,,,0.00,0.0,meteohub,2013-02-15 07:21:00,
2013-02-15 02:26:00,36.0,29.1,29.91,SSW,193,2.0,3.0,76,0.00,,,0.00,0.0,meteohub,2013-02-15 07:26:00,
2013-02-15 02:31:00,36.0,29.1,29.91,SSW,200,0.0,3.0,76,0.00,,,0.00,0.0,meteohub,2013-02-15 07:31:00,
2013-02-15 02:37:00,36.1,29.3,29.91,SW,220,0.0,6.0,76,0.00,,,0.00,0.0,meteohub,2013-02-15 07:37:00,
2013-02-15 02:42:00,36.1,29.3,29.90,SW,220,0.0,6.0,76,0.00,,,0.00,0.0,meteohub,2013-02-15 07:42:00,
2013-02-15 02:47:00,36.1,29.3,29.91,SW,217,0.0,3.0,76,0.00,,,0.00,0.0,meteohub,2013-02-15 07:47:00,
2013-02-15 02:52:00,36.1,29.3,29.90,SE,143,1.0,3.0,76,0.00,,,0.00,0.0,meteohub,2013-02-15 07:52:00,
2013-02-15 02:57:00,36.1,29.3,29.91,SSW,192,1.0,5.0,76,0.00,,,0.00,0.0,meteohub,2013-02-15 07:57:00,
2013-02-15 03:02:00,36.1,29.3,29.90,South,178,0.0,5.0,76,0.00,,,0.00,0.0,meteohub,2013-02-15 08:02:00,
2013-02-15 03:07:00,36.1,29.3,29.90,SSW,194,0.0,4.0,76,0.00,,,0.00,0.0,meteohub,2013-02-15 08:07:00,
2013-02-15 03:12:00,36.1,29.3,29.89,SSW,199,3.0,4.0,76,0.00,,,0.00,0.0,meteohub,2013-02-15 08:12:00,
2013-02-15 03:17:00,36.1,29.3,29.89,SW,214,0.0,6.0,76,0.00,,,0.00,0.0,meteohub,2013-02-15 08:17:00,
2013-02-15 03:22:00,36.1,29.3,29.89,SE,140,0.0,6.0,76,0.00,,,0.00,0.0,meteohub,2013-02-15 08:22:00,
2013-02-15 03:27:00,36.1,29.3,29.89,South,181,1.0,8.0,76,0.00,,,0.00,0.0,meteohub,2013-02-15 08:27:00,
2013-02-15 03:32:00,36.0,29.1,29.89,SSW,196,0.0,8.0,76,0.00,,,0.00,0.0,meteohub,2013-02-15 08:32:00,
2013-02-15 03:37:00,36.0,28.8,29.89,South,186,1.0,8.0,75,0.00,,,0.00,0.0,meteohub,2013-02-15 08:37:00,
2013-02-15 03:42:00,36.0,28.8,29.88,SSW,211,0.0,7.0,75,0.00,,,0.00,0.0,meteohub,2013-02-15 08:42:00,
2013-02-15 03:47:00,35.8,28.6,29.88,South,172,2.0,7.0,75,0.00,,,0.00,0.0,meteohub,2013-02-15 08:47:00,
2013-02-15 03:52:00,35.8,28.6,29.88,South,172,0.0,7.0,75,0.00,,,0.00,0.0,meteohub,2013-02-15 08:52:00,
2013-02-15 03:57:00,35.4,28.6,29.88,SW,223,3.0,3.0,76,0.00,,,0.00,0.0,meteohub,2013-02-15 08:57:00,
2013-02-15 04:02:00,35.4,28.2,29.88,South,186,0.0,4.0,75,0.00,,,0.00,0.0,meteohub,2013-02-15 09:02:00,
2013-02-15 04:07:00,35.2,28.0,29.88,SW,215,0.0,4.0,75,0.00,,,0.00,0.0,meteohub,2013-02-15 09:07:00,
2013-02-15 04:12:00,35.2,28.0,29.88,SW,233,1.0,4.0,75,0.00,,,0.00,0.0,meteohub,2013-02-15 09:12:00,
2013-02-15 04:17:00,35.2,28.4,29.88,SSW,192,0.0,3.0,76,0.00,,,0.00,0.0,meteohub,2013-02-15 09:17:00,
2013-02-15 04:22:00,35.1,28.2,29.89,ESE,116,0.0,4.0,76,0.00,,,0.00,0.0,meteohub,2013-02-15 09:22:00,
2013-02-15 04:27:00,35.1,28.2,29.89,SW,234,0.0,4.0,76,0.00,,,0.00,0.0,meteohub,2013-02-15 09:27:00,
2013-02-15 04:32:00,35.1,28.2,29.89,South,177,1.0,4.0,76,0.00,,,0.00,0.0,meteohub,2013-02-15 09:32:00,
2013-02-15 04:37:00,35.1,28.2,29.89,SW,223,1.0,6.0,76,0.00,,,0.00,0.0,meteohub,2013-02-15 09:37:00,
2013-02-15 04:42:00,35.1,28.2,29.90,SE,135,1.0,6.0,76,0.00,,,0.00,0.0,meteohub,2013-02-15 09:42:00,
2013-02-15 04:47:00,35.2,28.4,29.90,SSW,194,0.0,6.0,76,0.00,,,0.00,0.0,meteohub,2013-02-15 09:47:00,
2013-02-15 04:52:00,35.2,28.4,29.90,SW,221,3.0,6.0,76,0.00,,,0.00,0.0,meteohub,2013-02-15 09:52:00,
2013-02-15 04:57:00,35.4,28.6,29.90,SSW,209,4.0,10.0,76,0.00,,,0.00,0.0,meteohub,2013-02-15 09:57:00,
2013-02-15 05:02:00,35.4,28.2,29.90,SSE,159,2.0,10.0,75,0.00,,,0.00,0.0,meteohub,2013-02-15 10:02:00,
2013-02-15 05:07:00,35.6,28.4,29.90,WSW,245,1.0,10.0,75,0.00,,,0.00,0.0,meteohub,2013-02-15 10:07:00,
2013-02-15 05:12:00,35.6,28.4,29.90,SSW,212,1.0,7.0,75,0.00,,,0.00,0.0,meteohub,2013-02-15 10:12:00,
2013-02-15 05:17:00,35.8,28.6,29.89,South,176,1.0,7.0,75,0.00,,,0.00,0.0,meteohub,2013-02-15 10:17:00,
2013-02-15 05:22:00,35.8,28.6,29.90,WSW,252,0.0,7.0,75,0.00,,,0.00,0.0,meteohub,2013-02-15 10:22:00,
2013-02-15 05:27:00,35.8,28.6,29.90,SSW,198,1.0,7.0,75,0.00,,,0.00,0.0,meteohub,2013-02-15 10:27:00,
2013-02-15 05:33:00,35.8,28.6,29.89,SSW,200,0.0,9.0,75,0.00,,,0.00,0.0,meteohub,2013-02-15 10:33:00,
2013-02-15 05:38:00,36.0,28.8,29.89,SSW,206,0.0,9.0,75,0.00,,,0.00,0.0,meteohub,2013-02-15 10:38:00,
2013-02-15 05:43:00,36.0,28.8,29.89,South,190,5.0,9.0,75,0.00,,,0.00,0.0,meteohub,2013-02-15 10:43:00,
2013-02-15 05:49:00,36.0,28.8,29.89,South,178,2.0,9.0,75,0.00,,,0.00,0.0,meteohub,2013-02-15 10:49:00,
2013-02-15 05:54:00,36.1,28.9,29.90,South,169,1.0,5.0,75,0.00,,,0.00,0.0,meteohub,2013-02-15 10:54:00,
2013-02-15 05:59:00,36.1,28.6,29.89,ESE,112,0.0,6.0,74,0.00,,,0.00,0.0,meteohub,2013-02-15 10:59:00,
2013-02-15 06:05:00,36.1,28.6,29.89,SSE,155,2.0,6.0,74,0.00,,,0.00,0.0,meteohub,2013-02-15 11:05:00,
2013-02-15 06:10:00,36.1,28.6,29.89,SW,218,0.0,6.0,74,0.00,,,0.00,0.0,meteohub,2013-02-15 11:10:00,
2013-02-15 06:16:00,36.1,28.6,29.89,NW,320,4.0,6.0,74,0.00,,,0.00,0.0,meteohub,2013-02-15 11:16:00,
2013-02-15 06:21:00,36.1,28.6,29.89,South,190,0.0,6.0,74,0.00,,,0.00,0.0,meteohub,2013-02-15 11:21:00,
2013-02-15 06:26:00,36.0,28.4,29.89,SW,220,4.0,6.0,74,0.00,,,0.00,0.0,meteohub,2013-02-15 11:26:00,
2013-02-15 06:31:00,36.0,28.4,29.89,SW,215,2.0,7.0,74,0.00,,,0.00,0.0,meteohub,2013-02-15 11:31:00,
2013-02-15 06:37:00,36.0,28.4,29.90,WSW,237,1.0,7.0,74,0.00,,,0.00,0.0,meteohub,2013-02-15 11:37:00,
2013-02-15 06:42:00,35.8,28.4,29.90,SSW,192,1.0,7.0,74,0.00,,,0.00,0.0,meteohub,2013-02-15 11:42:00,
2013-02-15 06:47:00,35.8,28.4,29.90,SSW,209,0.0,7.0,74,0.00,,,0.00,0.0,meteohub,2013-02-15 11:47:00,
2013-02-15 06:52:00,35.8,28.4,29.90,SSW,200,5.0,7.0,74,0.00,,,0.00,0.0,meteohub,2013-02-15 11:52:00,
2013-02-15 06:57:00,35.8,28.4,29.90,SW,229,0.0,7.0,74,0.00,,,0.00,5.0,meteohub,2013-02-15 11:57:00,
2013-02-15 07:02:00,35.6,28.2,29.90,WSW,242,0.0,7.0,74,0.00,,,0.00,7.0,meteohub,2013-02-15 12:02:00,
2013-02-15 07:07:00,35.6,28.2,29.90,WNW,289,1.0,7.0,74,0.00,,,0.00,11.0,meteohub,2013-02-15 12:07:00,
2013-02-15 07:12:00,35.4,28.0,29.90,WSW,253,5.0,11.0,74,0.00,,,0.00,11.0,meteohub,2013-02-15 12:12:00,
2013-02-15 07:17:00,35.4,28.0,29.91,West,267,5.0,11.0,74,0.00,,,0.00,12.0,meteohub,2013-02-15 12:17:00,
2013-02-15 07:22:00,35.4,28.0,29.91,WSW,258,6.0,7.0,74,0.00,,,0.00,16.0,meteohub,2013-02-15 12:22:00,
2013-02-15 07:27:00,35.4,28.0,29.91,WSW,242,0.0,7.0,74,0.00,,,0.00,16.0,meteohub,2013-02-15 12:27:00,
2013-02-15 07:32:00,35.4,28.0,29.91,SW,226,2.0,9.0,74,0.00,,,0.00,19.0,meteohub,2013-02-15 12:32:00,
2013-02-15 07:37:00,35.4,28.0,29.91,West,266,3.0,9.0,74,0.00,,,0.00,28.0,meteohub,2013-02-15 12:37:00,
2013-02-15 07:42:00,35.4,28.0,29.92,SW,215,3.0,9.0,74,0.00,,,0.00,28.0,meteohub,2013-02-15 12:42:00,
2013-02-15 07:47:00,35.4,28.0,29.91,SSW,202,3.0,9.0,74,0.00,,,0.00,30.0,meteohub,2013-02-15 12:47:00,
2013-02-15 07:52:00,35.4,28.0,29.92,SW,229,2.0,10.0,74,0.00,,,0.00,28.0,meteohub,2013-02-15 12:52:00,
2013-02-15 07:57:00,35.4,28.0,29.92,South,178,2.0,10.0,74,0.00,,,0.00,35.0,meteohub,2013-02-15 12:57:00,
2013-02-15 08:02:00,35.6,28.2,29.92,SSW,200,6.0,10.0,74,0.00,,,0.00,47.0,meteohub,2013-02-15 13:02:00,
2013-02-15 08:07:00,35.8,28.4,29.92,SSW,200,5.0,10.0,74,0.00,,,0.00,86.0,meteohub,2013-02-15 13:07:00,
2013-02-15 08:12:00,36.0,28.4,29.92,WSW,249,0.0,10.0,74,0.00,,,0.00,42.0,meteohub,2013-02-15 13:12:00,
2013-02-15 08:17:00,36.0,28.2,29.92,SW,233,0.0,10.0,73,0.00,,,0.00,93.0,meteohub,2013-02-15 13:17:00,
2013-02-15 08:22:00,36.1,28.4,29.92,SSW,212,0.0,10.0,73,0.00,,,0.00,62.0,meteohub,2013-02-15 13:22:00,
2013-02-15 08:28:00,36.3,28.6,29.92,WSW,254,0.0,10.0,73,0.00,,,0.00,95.0,meteohub,2013-02-15 13:28:00,
2013-02-15 08:33:00,36.7,28.8,29.92,South,186,2.0,7.0,73,0.00,,,0.00,91.0,meteohub,2013-02-15 13:33:00,
2013-02-15 08:38:00,37.0,28.9,29.92,WSW,238,4.0,7.0,72,0.00,,,0.00,118.0,meteohub,2013-02-15 13:38:00,
2013-02-15 08:44:00,37.2,29.1,29.93,SW,225,1.0,7.0,72,0.00,,,0.00,83.0,meteohub,2013-02-15 13:44:00,
2013-02-15 08:49:00,37.4,28.9,29.93,SSW,199,9.0,9.0,71,0.00,,,0.00,54.0,meteohub,2013-02-15 13:49:00,
2013-02-15 08:55:00,37.6,29.1,29.93,SW,219,0.0,11.0,71,0.00,,,0.00,56.0,meteohub,2013-02-15 13:55:00,
2013-02-15 09:00:00,37.8,29.1,29.93,South,175,0.0,9.0,71,0.00,,,0.00,72.0,meteohub,2013-02-15 14:00:00,
2013-02-15 09:05:00,37.9,29.3,29.93,SSW,197,0.0,9.0,71,0.00,,,0.00,76.0,meteohub,2013-02-15 14:05:00,
2013-02-15 09:10:00,38.1,29.1,29.93,South,171,0.0,9.0,70,0.00,,,0.00,125.0,meteohub,2013-02-15 14:10:00,
2013-02-15 09:16:00,38.3,29.3,29.93,SSW,202,2.0,5.0,70,0.00,,,0.00,130.0,meteohub,2013-02-15 14:16:00,
2013-02-15 09:21:00,38.5,29.5,29.93,South,180,1.0,10.0,70,0.00,,,0.00,169.0,meteohub,2013-02-15 14:21:00,
2013-02-15 09:26:00,38.8,29.5,29.94,SSW,196,1.0,10.0,69,0.00,,,0.00,192.0,meteohub,2013-02-15 14:26:00,
2013-02-15 09:32:00,39.0,29.7,29.93,SSW,196,0.0,7.0,69,0.00,,,0.00,197.0,meteohub,2013-02-15 14:32:00,
2013-02-15 09:37:00,39.6,30.2,29.93,South,173,2.0,7.0,69,0.00,,,0.00,185.0,meteohub,2013-02-15 14:37:00,
2013-02-15 09:42:00,39.7,30.4,29.93,South,183,0.0,7.0,69,0.00,,,0.00,197.0,meteohub,2013-02-15 14:42:00,
2013-02-15 09:47:00,40.3,30.6,29.93,SSW,207,0.0,7.0,68,0.00,,,0.00,357.0,meteohub,2013-02-15 14:47:00,
2013-02-15 09:52:00,40.8,30.7,29.93,WNW,299,3.0,7.0,67,0.00,,,0.00,190.0,meteohub,2013-02-15 14:52:00,
2013-02-15 09:57:00,41.2,30.7,29.93,South,172,0.0,7.0,66,0.00,,,0.00,127.0,meteohub,2013-02-15 14:57:00,
2013-02-15 10:02:00,41.5,30.7,29.93,South,188,1.0,8.0,65,0.00,,,0.00,287.0,meteohub,2013-02-15 15:02:00,
2013-02-15 10:07:00,41.7,30.7,29.93,WSW,254,0.0,8.0,65,0.00,,,0.00,192.0,meteohub,2013-02-15 15:07:00,
2013-02-15 10:12:00,41.9,30.6,29.93,SSW,202,3.0,8.0,64,0.00,,,0.00,139.0,meteohub,2013-02-15 15:12:00,
2013-02-15 10:17:00,42.3,30.9,29.93,South,179,0.0,6.0,64,0.00,,,0.00,466.0,meteohub,2013-02-15 15:17:00,
2013-02-15 10:22:00,43.0,31.3,29.93,WSW,252,1.0,6.0,63,0.00,,,0.00,105.0,meteohub,2013-02-15 15:22:00,
2013-02-15 10:28:00,43.3,31.6,29.92,SSW,211,0.0,6.0,63,0.00,,,0.00,605.0,meteohub,2013-02-15 15:28:00,
2013-02-15 10:33:00,44.2,31.6,29.93,SSW,204,4.0,9.0,61,0.00,,,0.00,621.0,meteohub,2013-02-15 15:33:00,
2013-02-15 10:38:00,45.0,32.0,29.93,South,174,0.0,9.0,60,0.00,,,0.00,594.0,meteohub,2013-02-15 15:38:00,
2013-02-15 10:44:00,45.0,31.5,29.93,SW,230,1.0,9.0,59,0.00,,,0.00,227.0,meteohub,2013-02-15 15:44:00,
2013-02-15 10:49:00,45.9,32.0,29.93,South,190,4.0,9.0,58,0.00,,,0.00,680.0,meteohub,2013-02-15 15:49:00,
2013-02-15 10:54:00,45.9,31.1,29.93,West,273,1.0,8.0,56,0.00,,,0.00,677.0,meteohub,2013-02-15 15:54:00,
2013-02-15 11:00:00,46.2,31.8,29.93,SW,226,2.0,11.0,57,0.00,,,0.00,652.0,meteohub,2013-02-15 16:00:00,
2013-02-15 11:05:00,46.6,31.6,29.93,WNW,289,1.0,11.0,56,0.00,,,0.00,584.0,meteohub,2013-02-15 16:05:00,
2013-02-15 11:11:00,46.6,31.6,29.93,SW,221,2.0,11.0,56,0.00,,,0.00,606.0,meteohub,2013-02-15 16:11:00,
2013-02-15 11:16:00,46.8,30.9,29.93,West,265,7.0,12.0,54,0.00,,,0.00,615.0,meteohub,2013-02-15 16:16:00,
2013-02-15 11:21:00,46.9,31.1,29.93,WNW,284,8.0,17.0,54,0.00,,,0.00,582.0,meteohub,2013-02-15 16:21:00,
2013-02-15 11:27:00,47.1,30.9,29.92,WNW,286,10.0,17.0,53,0.00,,,0.00,510.0,meteohub,2013-02-15 16:27:00,
2013-02-15 11:32:00,47.1,30.4,29.92,West,277,6.0,17.0,52,0.00,,,0.00,468.0,meteohub,2013-02-15 16:32:00,
2013-02-15 11:37:00,47.5,30.7,29.92,WSW,247,8.0,19.0,52,0.00,,,0.00,364.0,meteohub,2013-02-15 16:37:00,
2013-02-15 11:42:00,47.3,30.6,29.92,NW,319,3.0,19.0,52,0.00,,,0.00,323.0,meteohub,2013-02-15 16:42:00,
2013-02-15 11:47:00,47.1,29.8,29.92,WSW,247,11.0,19.0,51,0.00,,,0.00,360.0,meteohub,2013-02-15 16:47:00,
2013-02-15 11:52:00,46.8,29.7,29.92,WSW,246,2.0,19.0,51,0.00,,,0.00,292.0,meteohub,2013-02-15 16:52:00,
2013-02-15 11:57:00,46.8,30.0,29.91,NW,308,6.0,14.0,52,0.00,,,0.00,408.0,meteohub,2013-02-15 16:57:00,
2013-02-15 12:02:00,47.1,30.4,29.91,WNW,283,11.0,14.0,52,0.00,,,0.00,374.0,meteohub,2013-02-15 17:02:00,
2013-02-15 12:07:00,47.1,29.5,29.91,WSW,254,5.0,15.0,50,0.00,,,0.00,234.0,meteohub,2013-02-15 17:07:00,
2013-02-15 12:12:00,46.9,29.8,29.91,NNW,336,3.0,15.0,51,0.00,,,0.00,197.0,meteohub,2013-02-15 17:12:00,
2013-02-15 12:17:00,46.8,29.7,29.91,NW,313,4.0,18.0,51,0.00,,,0.00,190.0,meteohub,2013-02-15 17:17:00,
2013-02-15 12:23:00,46.6,29.5,29.91,WNW,286,1.0,18.0,51,0.00,,,0.00,172.0,meteohub,2013-02-15 17:23:00,
2013-02-15 12:28:00,46.4,29.3,29.91,West,268,13.0,18.0,51,0.00,,,0.00,167.0,meteohub,2013-02-15 17:28:00,
2013-02-15 12:33:00,46.2,29.5,29.91,WNW,288,4.0,15.0,52,0.00,,,0.00,171.0,meteohub,2013-02-15 17:33:00,
2013-02-15 12:39:00,46.2,29.5,29.91,West,279,2.0,15.0,52,0.00,,,0.00,146.0,meteohub,2013-02-15 17:39:00,
2013-02-15 12:44:00,46.2,29.1,29.91,WSW,244,6.0,13.0,51,0.00,,,0.00,160.0,meteohub,2013-02-15 17:44:00,
2013-02-15 12:49:00,46.2,30.0,29.91,WNW,303,2.0,13.0,53,0.00,,,0.00,144.0,meteohub,2013-02-15 17:49:00,
2013-02-15 12:55:00,46.0,30.7,29.91,WNW,303,1.0,11.0,55,0.00,,,0.00,171.0,meteohub,2013-02-15 17:55:00,
2013-02-15 13:00:00,45.9,30.2,29.91,WNW,297,1.0,11.0,54,0.00,,,0.00,221.0,meteohub,2013-02-15 18:00:00,
2013-02-15 13:05:00,45.9,30.2,29.91,WNW,296,1.0,10.0,54,0.00,,,0.00,267.0,meteohub,2013-02-15 18:05:00,
2013-02-15 13:10:00,46.0,30.7,29.90,SW,236,1.0,10.0,55,0.00,,,0.00,257.0,meteohub,2013-02-15 18:10:00,
2013-02-15 13:16:00,46.0,30.7,29.90,WNW,301,2.0,9.0,55,0.00,,,0.00,237.0,meteohub,2013-02-15 18:16:00,
2013-02-15 13:21:00,46.2,31.5,29.90,NW,313,1.0,5.0,56,0.00,,,0.00,216.0,meteohub,2013-02-15 18:21:00,
2013-02-15 13:26:00,46.0,30.4,29.90,NW,309,6.0,9.0,54,0.00,,,0.00,193.0,meteohub,2013-02-15 18:26:00,
2013-02-15 13:32:00,46.0,30.4,29.90,NW,309,0.0,9.0,54,0.00,,,0.00,174.0,meteohub,2013-02-15 18:32:00,
2013-02-15 13:37:00,46.0,29.8,29.91,West,260,5.0,9.0,53,0.00,,,0.00,232.0,meteohub,2013-02-15 18:37:00,
2013-02-15 13:42:00,46.0,29.8,29.91,WNW,295,4.0,9.0,53,0.00,,,0.00,221.0,meteohub,2013-02-15 18:42:00,
2013-02-15 13:47:00,46.0,29.5,29.91,NW,315,5.0,10.0,52,0.00,,,0.00,251.0,meteohub,2013-02-15 18:47:00,
2013-02-15 13:52:00,46.0,29.5,29.91,NW,311,4.0,10.0,52,0.00,,,0.00,241.0,meteohub,2013-02-15 18:52:00,
2013-02-15 13:57:00,46.0,28.4,29.91,West,274,2.0,19.0,50,0.00,,,0.00,350.0,meteohub,2013-02-15 18:57:00,
2013-02-15 14:02:00,46.2,28.6,29.91,WNW,288,4.0,19.0,50,0.00,,,0.00,431.0,meteohub,2013-02-15 19:02:00,
2013-02-15 14:07:00,46.6,28.9,29.91,West,265,6.0,18.0,50,0.00,,,0.00,318.0,meteohub,2013-02-15 19:07:00,
2013-02-15 14:12:00,46.6,28.4,29.91,WNW,296,4.0,18.0,49,0.00,,,0.00,257.0,meteohub,2013-02-15 19:12:00,
2013-02-15 14:17:00,46.6,27.0,29.91,WSW,252,6.0,18.0,46,0.00,,,0.00,211.0,meteohub,2013-02-15 19:17:00,
2013-02-15 14:22:00,46.6,27.9,29.90,East,86,5.0,18.0,48,0.00,,,0.00,220.0,meteohub,2013-02-15 19:22:00,
2013-02-15 14:27:00,46.2,28.6,29.91,NW,317,2.0,14.0,50,0.00,,,0.00,211.0,meteohub,2013-02-15 19:27:00,
2013-02-15 14:32:00,45.9,28.8,29.91,WNW,287,0.0,14.0,51,0.00,,,0.00,197.0,meteohub,2013-02-15 19:32:00,
2013-02-15 14:37:00,45.7,29.1,29.91,West,264,3.0,14.0,52,0.00,,,0.00,192.0,meteohub,2013-02-15 19:37:00,
2013-02-15 14:42:00,45.3,28.8,29.91,North,355,3.0,14.0,52,0.00,,,0.00,178.0,meteohub,2013-02-15 19:42:00,
2013-02-15 14:47:00,45.1,28.6,29.91,NW,312,1.0,12.0,52,0.00,,,0.00,165.0,meteohub,2013-02-15 19:47:00,
2013-02-15 14:52:00,45.0,29.3,29.91,North,0,0.0,12.0,54,0.00,,,0.00,153.0,meteohub,2013-02-15 19:52:00,
2013-02-15 14:57:00,44.8,29.1,29.91,West,275,4.0,12.0,54,0.00,,,0.00,144.0,meteohub,2013-02-15 19:57:00,
2013-02-15 15:02:00,44.6,28.9,29.91,WNW,288,2.0,12.0,54,0.00,,,0.00,155.0,meteohub,2013-02-15 20:02:00,
2013-02-15 15:07:00,44.4,28.8,29.91,WNW,288,0.0,12.0,54,0.00,,,0.00,139.0,meteohub,2013-02-15 20:07:00,
2013-02-15 15:12:00,44.2,28.6,29.91,WSW,240,0.0,12.0,54,0.00,,,0.00,134.0,meteohub,2013-02-15 20:12:00,
2013-02-15 15:17:00,44.1,28.9,29.91,NNW,329,1.0,12.0,55,0.00,,,0.00,132.0,meteohub,2013-02-15 20:17:00,
2013-02-15 15:23:00,44.1,28.9,29.91,WNW,292,0.0,12.0,55,0.00,,,0.00,171.0,meteohub,2013-02-15 20:23:00,
2013-02-15 15:28:00,44.1,28.9,29.91,NNE,15,2.0,11.0,55,0.00,,,0.00,172.0,meteohub,2013-02-15 20:28:00,
2013-02-15 15:33:00,44.1,28.0,29.91,NW,306,3.0,13.0,53,0.00,,,0.00,142.0,meteohub,2013-02-15 20:33:00,
2013-02-15 15:38:00,44.1,28.4,29.91,WNW,283,2.0,13.0,54,0.00,,,0.00,144.0,meteohub,2013-02-15 20:38:00,
2013-02-15 15:44:00,44.1,28.4,29.91,NW,314,3.0,13.0,54,0.00,,,0.00,190.0,meteohub,2013-02-15 20:44:00,
2013-02-15 15:49:00,44.1,28.4,29.91,NW,316,2.0,13.0,54,0.00,,,0.00,251.0,meteohub,2013-02-15 20:49:00,
2013-02-15 15:54:00,44.2,28.2,29.91,WNW,294,1.0,12.0,53,0.00,,,0.00,167.0,meteohub,2013-02-15 20:54:00,
2013-02-15 15:59:00,44.4,27.9,29.91,WNW,300,0.0,14.0,52,0.00,,,0.00,137.0,meteohub,2013-02-15 20:59:00,
2013-02-15 16:05:00,44.6,28.0,29.91,NNW,338,1.0,14.0,52,0.00,,,0.00,162.0,meteohub,2013-02-15 21:05:00,
2013-02-15 16:10:00,44.8,27.7,29.91,West,275,2.0,14.0,51,0.00,,,0.00,90.0,meteohub,2013-02-15 21:10:00,
2013-02-15 16:15:00,44.6,27.5,29.92,WNW,294,1.0,12.0,51,0.00,,,0.00,130.0,meteohub,2013-02-15 21:15:00,
2013-02-15 16:21:00,44.4,27.5,29.92,NW,305,4.0,11.0,51,0.00,,,0.00,125.0,meteohub,2013-02-15 21:21:00,
2013-02-15 16:26:00,44.2,27.3,29.92,NW,315,6.0,11.0,51,0.00,,,0.00,76.0,meteohub,2013-02-15 21:26:00,
2013-02-15 16:31:00,44.1,27.1,29.92,NW,314,0.0,11.0,51,0.00,,,0.00,47.0,meteohub,2013-02-15 21:31:00,
2013-02-15 16:36:00,43.5,26.6,29.93,NNW,327,0.0,12.0,51,0.00,,,0.00,58.0,meteohub,2013-02-15 21:36:00,
2013-02-15 16:42:00,43.3,27.0,29.93,NW,306,1.0,12.0,52,0.00,,,0.00,60.0,meteohub,2013-02-15 21:42:00,
2013-02-15 16:47:00,43.2,27.1,29.93,WNW,301,4.0,9.0,53,0.00,,,0.00,42.0,meteohub,2013-02-15 21:47:00,
2013-02-15 16:52:00,42.8,26.8,29.93,NNW,327,2.0,9.0,53,0.00,,,0.00,44.0,meteohub,2013-02-15 21:52:00,
2013-02-15 16:57:00,42.4,26.1,29.93,West,273,2.0,11.0,52,0.00,,,0.00,37.0,meteohub,2013-02-15 21:57:00,
2013-02-15 17:02:00,42.3,26.4,29.93,NW,319,3.0,11.0,53,0.00,,,0.00,32.0,meteohub,2013-02-15 22:02:00,
2013-02-15 17:07:00,42.1,26.2,29.93,WNW,287,3.0,11.0,53,0.00,,,0.00,25.0,meteohub,2013-02-15 22:07:00,
2013-02-15 17:12:00,41.7,26.2,29.93,West,271,1.0,11.0,54,0.00,,,0.00,14.0,meteohub,2013-02-15 22:12:00,
2013-02-15 17:17:00,41.5,26.6,29.93,SW,232,1.0,9.0,55,0.00,,,0.00,9.0,meteohub,2013-02-15 22:17:00,
2013-02-15 17:22:00,41.4,26.4,29.93,WNW,290,0.0,5.0,55,0.00,,,0.00,5.0,meteohub,2013-02-15 22:22:00,
2013-02-15 17:27:00,41.2,26.2,29.94,SSW,210,0.0,5.0,55,0.00,,,0.00,0.0,meteohub,2013-02-15 22:27:00,
2013-02-15 17:32:00,40.8,25.9,29.94,WNW,292,0.0,5.0,55,0.00,,,0.00,0.0,meteohub,2013-02-15 22:32:00,
2013-02-15 17:37:00,40.8,25.9,29.94,WNW,290,2.0,5.0,55,0.00,,,0.00,0.0,meteohub,2013-02-15 22:37:00,
2013-02-15 17:42:00,40.6,26.2,29.94,North,355,0.0,5.0,56,0.00,,,0.00,0.0,meteohub,2013-02-15 22:42:00,
2013-02-15 17:47:00,40.5,26.4,29.94,SW,236,0.0,4.0,57,0.00,,,0.00,0.0,meteohub,2013-02-15 22:47:00,
2013-02-15 17:52:00,40.3,26.6,29.93,SSW,199,0.0,4.0,58,0.00,,,0.00,0.0,meteohub,2013-02-15 22:52:00,
2013-02-15 17:57:00,39.9,25.9,29.94,SE,141,1.0,5.0,57,0.00,,,0.00,0.0,meteohub,2013-02-15 22:57:00,
2013-02-15 18:02:00,39.7,26.2,29.94,SE,127,1.0,5.0,58,0.00,,,0.00,0.0,meteohub,2013-02-15 23:02:00,
2013-02-15 18:07:00,39.6,26.1,29.94,ESE,115,2.0,4.0,58,0.00,,,0.00,0.0,meteohub,2013-02-15 23:07:00,
2013-02-15 18:12:00,39.4,25.9,29.94,ESE,110,1.0,4.0,58,0.00,,,0.00,0.0,meteohub,2013-02-15 23:12:00,
2013-02-15 18:17:00,39.4,26.2,29.95,ESE,110,0.0,4.0,59,0.00,,,0.00,0.0,meteohub,2013-02-15 23:17:00,
2013-02-15 18:22:00,39.4,27.1,29.94,ESE,110,0.0,4.0,61,0.00,,,0.00,0.0,meteohub,2013-02-15 23:22:00,
2013-02-15 18:27:00,39.0,26.2,29.94,ESE,110,0.0,1.0,60,0.00,,,0.00,0.0,meteohub,2013-02-15 23:27:00,
2013-02-15 18:32:00,38.8,26.6,29.94,ESE,110,0.0,1.0,61,0.00,,,0.00,0.0,meteohub,2013-02-15 23:32:00,
2013-02-15 18:37:00,38.8,27.0,29.95,ESE,110,0.0,1.0,62,0.00,,,0.00,0.0,meteohub,2013-02-15 23:37:00,
2013-02-15 18:43:00,38.5,27.3,29.94,ESE,110,0.0,1.0,64,0.00,,,0.00,0.0,meteohub,2013-02-15 23:43:00,
2013-02-15 18:48:00,37.9,27.1,29.95,ESE,110,1.0,2.0,65,0.00,,,0.00,0.0,meteohub,2013-02-15 23:48:00,
2013-02-15 18:54:00,37.4,27.1,29.95,ESE,110,0.0,2.0,66,0.00,,,0.00,0.0,meteohub,2013-02-15 23:54:00,
2013-02-15 18:59:00,37.0,27.1,29.95,ESE,110,0.0,2.0,67,0.00,,,0.00,0.0,meteohub,2013-02-15 23:59:00,
2013-02-15 19:04:00,36.9,27.0,29.95,ESE,110,0.0,2.0,67,0.00,,,0.00,0.0,meteohub,2013-02-16 00:04:00,
2013-02-15 19:09:00,36.9,26.6,29.95,ESE,110,0.0,2.0,66,0.00,,,0.00,0.0,meteohub,2013-02-16 00:09:00,
2013-02-15 19:15:00,36.9,27.0,29.95,ESE,110,0.0,2.0,67,0.00,,,0.00,0.0,meteohub,2013-02-16 00:15:00,
2013-02-15 19:20:00,36.7,26.8,29.96,ESE,110,0.0,2.0,67,0.00,,,0.00,0.0,meteohub,2013-02-16 00:20:00,
2013-02-15 19:25:00,36.7,27.1,29.96,ESE,110,0.0,1.0,68,0.00,,,0.00,0.0,meteohub,2013-02-16 00:25:00,
2013-02-15 19:31:00,36.7,27.1,29.96,ESE,110,0.0,1.0,68,0.00,,,0.00,0.0,meteohub,2013-02-16 00:31:00,
2013-02-15 19:36:00,36.5,27.0,29.96,ESE,110,0.0,0.0,68,0.00,,,0.00,0.0,meteohub,2013-02-16 00:36:00,
2013-02-15 19:41:00,36.3,26.8,29.96,ESE,110,0.0,0.0,68,0.00,,,0.00,0.0,meteohub,2013-02-16 00:41:00,
2013-02-15 19:46:00,36.1,26.6,29.96,ESE,110,0.0,0.0,68,0.00,,,0.00,0.0,meteohub,2013-02-16 00:46:00,
2013-02-15 19:52:00,36.0,26.4,29.96,ESE,110,0.0,0.0,68,0.00,,,0.00,0.0,meteohub,2013-02-16 00:52:00,
2013-02-15 19:57:00,36.0,26.8,29.96,ESE,110,0.0,1.0,69,0.00,,,0.00,0.0,meteohub,2013-02-16 00:57:00,
2013-02-15 20:02:00,35.8,26.6,29.96,ESE,111,0.0,1.0,69,0.00,,,0.00,0.0,meteohub,2013-02-16 01:02:00,
2013-02-15 20:07:00,35.6,26.4,29.96,ESE,110,0.0,2.0,69,0.00,,,0.00,0.0,meteohub,2013-02-16 01:07:00,
2013-02-15 20:12:00,35.6,26.4,29.96,ESE,110,0.0,2.0,69,0.00,,,0.00,0.0,meteohub,2013-02-16 01:12:00,
2013-02-15 20:17:00,35.4,26.6,29.96,ESE,110,0.0,2.0,70,0.00,,,0.00,0.0,meteohub,2013-02-16 01:17:00,
2013-02-15 20:22:00,35.4,26.6,29.96,ESE,110,1.0,2.0,70,0.00,,,0.00,0.0,meteohub,2013-02-16 01:22:00,
2013-02-15 20:27:00,35.4,26.6,29.96,ESE,110,0.0,2.0,70,0.00,,,0.00,0.0,meteohub,2013-02-16 01:27:00,
2013-02-15 20:32:00,35.4,27.0,29.96,ESE,111,0.0,2.0,71,0.00,,,0.00,0.0,meteohub,2013-02-16 01:32:00,
2013-02-15 20:37:00,35.2,26.8,29.96,ESE,111,0.0,2.0,71,0.00,,,0.00,0.0,meteohub,2013-02-16 01:37:00,
2013-02-15 20:43:00,35.2,26.8,29.96,ESE,111,0.0,2.0,71,0.00,,,0.00,0.0,meteohub,2013-02-16 01:43:00,
2013-02-15 20:48:00,35.2,27.1,29.96,ESE,111,0.0,1.0,72,0.00,,,0.00,0.0,meteohub,2013-02-16 01:48:00,
2013-02-15 20:53:00,35.1,27.0,29.97,ESE,111,0.0,1.0,72,0.00,,,0.00,0.0,meteohub,2013-02-16 01:53:00,
2013-02-15 20:58:00,35.1,27.0,29.97,WNW,297,1.0,5.0,72,0.00,,,0.00,0.0,meteohub,2013-02-16 01:58:00,
2013-02-15 21:04:00,34.9,26.8,29.97,WNW,302,1.0,5.0,72,0.00,,,0.00,0.0,meteohub,2013-02-16 02:04:00,
2013-02-15 21:09:00,34.9,26.8,29.97,WSW,258,0.0,5.0,72,0.00,,,0.00,0.0,meteohub,2013-02-16 02:09:00,
2013-02-15 21:14:00,35.1,27.3,29.97,West,259,0.0,4.0,73,0.00,,,0.00,0.0,meteohub,2013-02-16 02:14:00,
2013-02-15 21:19:00,35.1,27.3,29.97,West,259,0.0,3.0,73,0.00,,,0.00,0.0,meteohub,2013-02-16 02:19:00,
2013-02-15 21:24:00,35.1,27.3,29.98,West,259,0.0,3.0,73,0.00,,,0.00,0.0,meteohub,2013-02-16 02:24:00,
2013-02-15 21:30:00,35.1,27.3,29.98,West,259,0.0,3.0,73,0.00,,,0.00,0.0,meteohub,2013-02-16 02:30:00,
2013-02-15 21:35:00,35.1,27.3,29.99,WSW,258,0.0,2.0,73,0.00,,,0.00,0.0,meteohub,2013-02-16 02:35:00,
2013-02-15 21:40:00,35.1,27.3,29.98,WSW,258,0.0,2.0,73,0.00,,,0.00,0.0,meteohub,2013-02-16 02:40:00,
2013-02-15 21:46:00,35.2,27.1,29.99,West,259,2.0,2.0,72,0.00,,,0.00,0.0,meteohub,2013-02-16 02:46:00,
2013-02-15 21:51:00,35.2,27.1,29.99,West,259,1.0,2.0,72,0.00,,,0.00,0.0,meteohub,2013-02-16 02:51:00,
2013-02-15 21:56:00,35.4,27.3,29.98,West,263,1.0,4.0,72,0.00,,,0.00,0.0,meteohub,2013-02-16 02:56:00,
2013-02-15 22:02:00,35.6,27.1,29.98,West,275,2.0,6.0,71,0.00,,,0.00,0.0,meteohub,2013-02-16 03:02:00,
2013-02-15 22:07:00,35.8,27.0,29.98,NW,317,5.0,6.0,70,0.00,,,0.00,0.0,meteohub,2013-02-16 03:07:00,
2013-02-15 22:12:00,36.0,27.1,29.98,NW,314,0.0,6.0,70,0.00,,,0.00,0.0,meteohub,2013-02-16 03:12:00,
2013-02-15 22:17:00,36.0,27.1,29.99,West,263,0.0,9.0,70,0.00,,,0.00,0.0,meteohub,2013-02-16 03:17:00,
2013-02-15 22:22:00,36.1,27.3,29.99,WSW,246,11.0,11.0,70,0.00,,,0.00,0.0,meteohub,2013-02-16 03:22:00,
2013-02-15 22:27:00,36.1,27.3,30.00,West,281,1.0,13.0,70,0.00,,,0.00,0.0,meteohub,2013-02-16 03:27:00,
2013-02-15 22:32:00,36.0,27.9,30.00,West,269,6.0,13.0,72,0.00,,,0.00,0.0,meteohub,2013-02-16 03:32:00,
2013-02-15 22:37:00,35.8,28.4,30.00,West,278,1.0,13.0,74,0.00,,,0.00,0.0,meteohub,2013-02-16 03:37:00,
2013-02-15 22:42:00,35.4,28.2,29.99,SSW,198,0.0,13.0,75,0.00,,,0.00,0.0,meteohub,2013-02-16 03:42:00,
2013-02-15 22:47:00,35.2,28.8,30.00,WNW,294,1.0,12.0,77,0.00,,,0.00,0.0,meteohub,2013-02-16 03:47:00,
2013-02-15 22:52:00,34.9,28.8,30.00,West,271,0.0,12.0,78,0.00,,,0.00,0.0,meteohub,2013-02-16 03:52:00,
2013-02-15 22:57:00,34.7,28.9,30.00,SW,226,0.0,5.0,79,0.00,,,0.00,0.0,meteohub,2013-02-16 03:57:00,
2013-02-15 23:03:00,34.3,28.8,30.00,SW,226,0.0,3.0,80,0.00,,,0.00,0.0,meteohub,2013-02-16 04:03:00,
2013-02-15 23:08:00,34.2,28.9,30.01,SW,226,0.0,3.0,81,0.00,,,0.00,0.0,meteohub,2013-02-16 04:08:00,
2013-02-15 23:13:00,34.0,29.1,30.01,SW,226,0.0,0.0,82,0.00,,,0.00,0.0,meteohub,2013-02-16 04:13:00,
2013-02-15 23:19:00,33.8,29.1,30.01,SW,226,0.0,0.0,83,0.00,,,0.00,0.0,meteohub,2013-02-16 04:19:00,
2013-02-15 23:24:00,33.6,28.9,30.01,SW,226,0.0,0.0,83,0.00,,,0.00,0.0,meteohub,2013-02-16 04:24:00,
2013-02-15 23:29:00,33.4,29.1,30.01,SW,226,0.0,0.0,84,0.00,,,0.00,0.0,meteohub,2013-02-16 04:29:00,
2013-02-15 23:35:00,33.3,29.3,30.01,SW,226,0.0,1.0,85,0.00,,,0.00,0.0,meteohub,2013-02-16 04:35:00,
2013-02-15 23:40:00,33.1,29.1,30.02,SW,226,0.0,1.0,85,0.00,,,0.00,0.0,meteohub,2013-02-16 04:40:00,
2013-02-15 23:45:00,32.9,29.1,30.02,SW,226,0.0,1.0,86,0.00,,,0.00,0.0,meteohub,2013-02-16 04:45:00,
2013-02-15 23:51:00,32.7,28.9,30.02,SW,226,0.0,1.0,86,0.00,,,0.00,0.0,meteohub,2013-02-16 04:51:00,
2013-02-15 23:56:00,32.5,28.8,30.02,SW,226,0.0,0.0,86,0.00,,,0.00,0.0,meteohub,2013-02-16 04:56:00,